星链-31444 (STARLINK-31444 )

导读

STARLINK-31444是美国于2024年3月16日发射的星链卫星,隶属于SpaceX打造的星链卫星互联网星座项目。星链系统旨在为全球用户提供高速互联网接入服务,该卫星入轨后,进一步扩充了星链星座的规模,提升星座的覆盖能力与服务稳定性,推进星链星座组网进程。

基本信息
目录编号:
59236
目录名称:
STARLINK-31444
国际标识:
2024-049F
轨道中心:
EARTH
卫星名称:
星链-31444
卫星全名:
星链-31444 (STARLINK-31444 )
卫星状态:
在轨 (已飞行909 天)
发射日期:
2024-03-16 UTC
国别 :
美国 (US)
星等 :
--
该卫星已列入 空间交会检测服务 Space Conjunction Data Service (SCDS) ,当前飞行风险评估等级: 无高风险
轨道信息
数据来源 国际轨道数据
星历时间: 2026-09-11T06:34:52+0800
21小时前
查看轨道信息
半长轴: 6795.001km
偏心率: 0.0018884
轨道倾角: 42.993°
近地点辐角 268.389°
升交点赤经 92.467°
平近点角 91.481°
近地点: 404.032km
远地点: 429.696km
周期: 92.906分钟
每日圈数: 15.499529
详细信息
固有亮度:
5
最大亮度:
0.3
卫星平台:
Starlink v2.0 mini
覆盖范围:
全球
运营商:
太空探索技术公司
运营商所在国:
美国
制造商(研发单位):
太空探索技术公司
制造商所在国:
美国
使用方式:
暂无
卫星简介
星链(Starlink)计划是由太空探索技术公司(SpaceX)提出的一个巨型低轨卫星互联网星座项目,计划在2019年至2024年间在太空搭建由约1.2万颗卫星组成的“星链”网络,其中1584颗将部署在地球上空550千米处的近地轨道,并从2020年开始工作。该卫星仍在工作。
2D轨道图
3D轨道图
轨道高度分析图
轨道倾角分析图
轨道综合分析图
查看轨道综合分析图
交会数据列表
事件ID 空间交会对象 最接近时刻(TCA) 交会距离 交会风险概率(CRP) 交会风险指数(CRI) 操作
CDM_260913-155605-758505-923622
OBJECT F (57585)
2026-09-13T
15:56:15+0000
2.730 km
极远距离
1.307335E-6 低风险 0.37
CDM_260911-191505-923606-329821
OBJECT H (63298)
2026-09-11T
19:15:42+0000
2.828 km
极远距离
1.040567E-6 低风险 0.35
与全量物体交会距离演化趋势
与全量物体交会风险概率演化趋势